SCP
0 0 0 0 0 0 0 0 0 0 0 0 0 0 0 0 0 0 0 0 0 0 0 0 0 0 0 0 0 0 0 1 1 1 1 1 1 1 1 1 2 2 1 1
0 0 0 0 0 0 0 0 0 0 0 0 0 0 0 0 0 0 0 0 0 0 0 0 0 0 0 0 0 0 0 1 1 1 1 1 1 1 1 1 1 2 1 1
0 0 0 0 0 0 0 0 0 0 0 0 0 0 0 0 0 0 0 0 0 0 0 0 0 0 0 0 0 0 0 0 1 1 1 1 1 1 1 1 1 1 1 1
0 0 0 0 0 0 0 0 0 0 0 0 0 0 0 0 0 0 0 0 0 0 0 0 0 0 0 0 0 0 0 0 0 1 1 1 1 1 1 0 1 1 1 1
0 0 0 0 0 0 0 0 0 0 0 0 0 0 0 0 0 0 0 0 0 0 0 0 0 0 0 0 0 0 0 0 0 1 1 1 1 1 1 1 1 1 1 1
0 0 0 0 0 0 0 0 0 0 0 0 0 0 0 0 0 0 0 0 0 0 0 0 0 0 0 0 0 0 0 0 0 0 0 1 1 1 1 1 1 1 1 1
0 0 0 0 0 0 0 0 0 0 0 0 0 0 0 0 0 0 0 0 0 0 0 0 0 0 0 0 0 0 0 0 0 0 0 0 0 0 0 0 0 0 1 1
0 0 0 0 0 0 0 0 0 0 0 0 0 0 0 0 0 0 0 0 0 0 0 0 0 0 0 0 0 0 0 0 0 0 0 0 0 0 0 0 0 0 0 0
0 0 0 0 0 0 0 0 0 0 0 0 0 0 0 0 0 0 0 0 0 0 0 0 0 0 0 0 0 0 0 0 0 0 0 0 0 0 0 0 0 0 0 0
0 0 0 0 0 0 0 0 0 0 0 0 0 0 0 0 0 0 0 0 0 0 0 0 0 0 0 0 0 0 0 0 0 0 0 0 0 0 0 0 0 0 0 0
0 0 0 0 0 0 0 0 0 0 0 0 0 0 0 0 0 0 0 0 0 0 0 0 0 0 0 0 0 0 0 0 0 0 0 0 0 0 0 0 0 0 0 0
0 0 0 0 0 0 0 0 0 0 0 0 0 0 0 0 0 0 0 0 0 0 0 0 0 0 0 0 0 0 0 0 0 0 0 0 0 0 0 0 0 0 0 0
0 0 0 0 0 0 0 0 0 0 0 0 0 0 0 0 0 0 0 0 0 0 0 0 0 0 0 0 0 0 0 0 0 0 0 0 0 0 0 0 0 0 0 0
0 0 0 0 0 0 0 0 0 0 0 0 0 0 0 0 0 0 0 0 0 0 0 0 0 0 0 0 0 0 0 0 0 0 0 0 0 0 0 0 0 0 0 0
0 0 0 0 0 0 0 0 0 0 0 0 0 0 0 0 0 0 0 0 0 0 0 0 0 0 0 0 0 0 0 0 0 0 0 0 0 0 0 0 0 0 0 0
0 0 0 0 0 0 0 0 0 0 0 0 0 0 0 0 0 0 0 0 0 0 0 0 0 0 0 0 0 0 0 0 0 0 0 0 0 0 0 0 0 0 0 0
0 0 0 0 0 0 0 0 0 0 0 0 0 0 0 0 0 0 0 0 0 0 0 0 0 0 0 0 0 0 0 0 0 0 0 0 0 0 0 0 0 0 0 0
0 0 0 0 0 0 0 0 0 0 0 0 0 0 0 0 0 0 0 0 0 0 0 0 0 0 0 0 0 0 0 0 0 0 0 0 0 0 0 0 0 0 0 0
0 0 0 0 0 0 0 0 0 0 0 0 0 0 0 0 0 0 0 0 0 0 0 0 0 0 0 0 0 0 0 0 0 0 0 0 0 0 0 0 0 0 0 0
0 0 0 0 0 0 0 0 0 0 0 0 0 0 0 0 0 0 0 0 0 0 0 0 0 0 0 0 0 0 0 0 0 0 0 0 0 0 0 0 0 0 0 0
0 0 0 0 0 0 0 0 0 0 0 0 0 0 0 0 0 0 0 0 0 0 0 0 0 0 0 0 0 0 0 0 0 0 0 0 0 0 0 0 0 0 0 0
0 0 0 0 0 0 0 0 0 0 0 0 0 0 0 0 0 0 0 0 0 0 0 0 0 0 0 0 0 0 0 0 0 0 0 0 0 0 0 0 0 0 0 0
0 0 0 0 0 0 0 0 0 0 0 0 0 0 0 0 0 0 0 0 0 0 0 0 0 0 0 0 0 0 0 0 0 0 0 0 0 0 0 0 0 0 0 0
0 0 0 0 0 0 0 0 0 0 0 0 0 0 0 0 0 0 0 0 0 0 0 0 0 0 0 0 0 0 0 0 0 0 0 0 0 0 0 0 0 0 0 0
0 0 0 0 0 0 0 0 0 0 0 0 0 0 0 0 0 0 0 0 0 0 0 0 0 0 0 0 0 0 0 0 0 0 0 0 0 0 0 0 0 0 0 0
0 0 0 0 0 0 0 0 0 0 0 0 0 0 0 0 0 0 0 0 0 0 0 0 0 0 0 0 0 0 0 0 0 0 0 0 0 0 0 0 0 0 0 0
Wind_Speed
2 2 5 7 7 3 3 3 5 5 2 2 6 11 12 7 5 6 6 6 6 7 6 3 3 3 2 3 3 4 4 3 3 2 2 2 3 3 2 2 3 4 4 4
2 5 6 3 3 3 3 4 5 5 2 2 6 12 10 6 6 6 6 7 7 5 4 2 2 3 4 4 4 5 5 4 4 3 3 2 2 2 2 2 2 3 3 4
6 3 2 4 4 4 5 6 5 5 5 3 4 9 6 4 4 4 4 5 4 5 5 3 3 3 3 4 5 5 5 5 4 3 2 2 2 1 1 1 2 3 3 3
4 2 2 3 4 5 6 5 5 4 2 4 1 7 7 4 4 4 4 3 4 4 3 3 3 3 4 5 4 4 4 4 4 4 4 4 4 3 3 2 2 2 3 3
4 2 3 4 5 6 4 1 2 2 3 4 3 4 10 2 4 5 4 4 4 3 3 3 3 3 3 2 2 3 3 3 3 4 5 5 4 3 2 2 2 2 2 3
3 2 2 3 1 4 3 2 2 2 1 5 5 5 9 4 6 4 3 3 3 3 2 2 1 1 1 1 0 1 2 2 3 4 5 5 5 3 3 2 2 2 1 2
3 2 2 1 2 1 3 4 2 3 2 7 3 5 10 5 4 4 3 3 3 3 2 2 2 2 2 1 0 0 2 2 2 3 4 4 4 4 5 4 3 3 2 2
3 5 4 3 5 5 5 5 6 5 5 5 3 8 8 4 3 2 2 2 2 2 2 2 2 1 1 1 1 0 1 1 2 2 3 3 3 3 3 4 3 4 3 3
5 5 0 1 1 5 5 4 3 3 0 3 6 6 8 2 2 1 1 1 2 2 2 2 2 2 2 1 1 1 1 0 1 1 1 1 2 2 3 3 2 3 2 2
5 4 1 0 1 0 2 5 4 4 4 5 6 5 5 4 3 2 1 2 2 2 2 3 3 2 2 1 1 1 1 0 0 1 1 1 1 1 1 1 2 2 2 2
3 3 1 1 6 7 5 4 4 3 4 5 4 7 4 5 4 3 2 2 2 2 2 3 3 2 2 2 2 2 1 1 1 0 0 0 0 0 1 1 1 1 1 2
3 3 3 6 3 2 5 6 7 6 5 5 4 8 2 2 1 2 1 2 2 1 2 2 2 2 2 2 2 2 1 1 1 1 1 0 1 1 1 0 1 1 1 1
4 3 1 3 2 1 3 4 4 3 3 5 6 8 1 2 1 1 1 1 2 2 2 3 2 2 2 2 2 2 1 1 1 1 1 1 1 1 0 1 1 0 1 1
2 4 6 9 5 4 5 5 6 5 5 6 9 9 6 4 3 3 2 2 2 2 2 2 2 2 2 2 2 2 2 2 1 1 1 1 1 0 1 0 0 0 0 1
2 4 5 6 4 3 5 6 8 10 10 9 9 9 10 6 5 3 2 2 2 3 3 2 2 2 2 3 3 3 3 2 1 1 1 1 1 1 1 1 0 0 0 1
2 3 2 5 4 4 7 8 10 11 10 10 9 12 7 4 2 2 2 1 2 3 3 3 3 3 3 3 3 3 3 3 1 1 1 1 1 1 1 1 1 1 1 1
3 3 2 4 2 3 9 10 12 9 8 9 13 12 4 3 3 3 2 1 2 3 3 3 3 2 2 2 2 2 3 2 2 2 2 2 1 1 1 1 1 1 1 0
5 4 3 2 1 9 9 3 8 9 7 8 6 4 4 4 3 1 1 1 3 3 3 3 3 2 2 2 2 2 2 2 2 2 2 2 2 2 2 1 1 1 1 1
6 6 4 3 5 10 7 2 4 6 7 5 7 6 3 2 1 2 1 1 2 3 3 2 2 1 1 1 2 2 2 2 2 2 3 3 2 2 2 2 2 2 1 2
3 4 4 4 5 9 6 2 2 3 6 2 5 6 4 1 2 3 1 1 2 2 2 2 2 1 1 2 1 1 2 2 2 3 3 3 2 2 2 2 2 2 1 2
3 4 7 7 8 10 5 2 3 5 6 1 3 3 3 4 4 2 2 3 2 2 2 2 2 1 1 2 1 1 1 2 3 3 3 3 2 2 2 2 2 2 2 2
8 7 7 5 7 11 2 4 5 4 1 1 1 0 2 2 2 2 2 3 3 3 3 3 2 2 2 2 1 1 2 3 3 3 3 3 3 2 2 2 2 2 2 2
7 8 6 9 8 2 2 3 1 1 1 1 1 2 0 1 2 2 3 3 3 3 3 3 2 2 2 2 1 2 3 3 3 3 3 3 3 3 2 2 2 2 1 2
4 1 3 5 6 3 2 2 2 1 1 2 2 1 1 1 2 3 3 3 4 4 3 3 3 2 3 3 3 3 3 3 2 3 3 3 3 3 3 2 1 2 2 2
5 3 3 6 5 2 2 2 2 2 2 2 3 2 1 1 2 3 3 4 3 3 3 2 2 2 3 4 4 4 3 3 3 3 3 3 3 3 3 3 2 3 3 4
3 4 5 6 2 3 3 1 1 1 2 2 2 3 2 2 3 3 3 3 3 3 3 3 3 3 3 3 4 4 3 3 2 3 3 3 3 3 3 3 4 5 6 7
Wind_Direction
113 123 205 208 203 213 201 225 259 271 288 268 252 267 278 283 266 262 264 263 263 261 266 254 220 204 187 185 186 188 187 187 169 166 182 189 199 199 193 187 183 180 174 172
94 232 228 191 192 210 225 249 266 290 295 273 281 276 271 261 249 242 245 254 260 268 287 266 226 202 199 198 201 198 197 191 190 191 196 196 184 192 184 173 178 181 178 179
195 229 176 168 185 202 224 224 239 259 320 311 307 292 267 263 251 254 249 255 262 256 264 262 237 221 210 209 209 208 204 196 195 181 149 129 107 94 149 192 204 199 182 181
231 260 170 182 208 192 243 220 221 237 274 283 279 287 278 261 283 271 266 274 277 279 277 269 244 233 225 225 215 213 202 196 189 173 167 163 174 192 203 199 208 202 184 180
236 198 179 205 216 186 218 173 190 208 210 278 245 249 279 269 267 268 266 267 275 280 274 270 256 238 237 231 216 210 199 194 185 178 181 179 185 196 173 164 192 196 196 197
249 230 208 214 212 176 148 84 56 59 107 263 224 209 273 234 228 249 263 282 289 306 314 308 309 331 339 15 120 190 185 192 183 179 180 184 187 177 163 176 196 202 205 212
288 250 231 158 111 94 134 111 30 340 310 250 210 219 252 251 234 227 248 284 301 319 343 353 1 4 1 3 7 204 177 188 183 178 183 192 193 185 187 192 198 203 207 221
226 266 214 194 184 176 191 165 173 206 232 271 236 235 251 254 254 246 248 269 323 336 346 345 329 335 341 340 334 313 185 189 179 180 192 193 189 194 202 200 198 206 213 217
200 247 19 191 195 154 163 201 180 142 212 277 259 267 288 261 276 288 301 344 338 325 328 328 334 344 347 347 335 291 192 172 190 196 190 188 197 198 205 206 204 211 217 211
183 238 257 204 93 291 177 154 132 158 192 249 275 261 249 252 250 270 309 313 315 328 331 332 340 343 345 344 358 21 56 206 211 186 192 192 206 214 212 199 214 218 216 206
176 195 268 192 200 193 164 172 173 174 187 192 257 265 232 220 218 213 247 289 304 321 322 325 329 338 351 5 16 24 20 22 23 26 177 144 175 179 169 210 240 244 227 207
188 163 237 238 233 206 193 193 172 180 219 209 230 266 289 199 197 183 239 302 335 344 332 332 334 354 4 360 0 7 9 2 348 14 50 61 61 83 119 239 268 262 247 231
156 157 240 320 297 234 228 221 205 187 167 191 209 256 348 50 29 325 284 323 345 358 357 359 1 357 344 339 340 341 346 333 343 23 58 48 42 51 337 276 277 265 257 259
146 184 199 217 228 187 212 218 197 185 205 220 225 247 280 298 300 299 302 305 319 338 345 353 343 339 341 338 331 326 328 334 352 13 30 11 334 303 293 313 322 269 259 266
144 231 240 255 263 218 222 219 201 211 219 223 241 242 258 259 262 273 297 319 338 341 343 336 326 327 335 342 341 339 332 334 344 359 347 312 327 343 7 15 3 23 29 303
171 226 247 274 264 251 256 240 219 228 234 241 259 264 262 260 260 276 289 306 309 310 316 320 329 340 339 335 337 341 334 332 340 323 317 346 12 20 7 350 3 19 7 339
193 174 190 260 303 334 262 226 208 210 212 207 234 249 261 262 244 230 231 257 280 290 304 305 301 299 314 323 327 319 319 337 356 349 351 3 7 1 344 344 359 308 284 303
184 171 189 230 81 240 248 184 196 208 223 215 232 256 252 241 236 222 200 234 281 297 304 303 301 304 320 333 339 339 355 7 11 6 0 1 357 338 340 344 314 298 300 275
198 179 173 179 232 269 286 241 178 195 246 220 226 248 270 274 13 304 280 227 253 274 285 287 291 294 321 333 340 359 13 19 17 358 346 342 335 326 326 313 305 306 302 293
194 184 178 186 210 240 256 250 220 149 263 223 198 219 226 163 238 266 329 338 318 324 331 337 344 352 351 342 353 26 17 17 352 331 323 325 326 318 308 300 306 307 290 286
168 194 207 212 230 256 262 262 135 183 250 245 189 208 192 202 230 272 337 348 345 342 344 6 12 352 335 347 7 12 354 325 317 327 330 334 330 314 305 310 319 312 300 303
185 190 205 195 222 248 216 139 183 224 351 35 37 216 207 246 306 338 341 335 341 344 354 4 3 342 352 2 2 313 309 318 330 333 336 335 328 321 323 317 319 321 303 291
206 200 195 201 221 250 154 188 243 351 341 330 327 327 305 286 305 325 328 332 338 339 344 352 351 344 355 355 344 303 315 332 333 334 329 329 331 328 326 315 312 312 300 286
241 228 206 243 254 245 235 269 322 330 319 343 353 340 1 308 307 317 319 328 337 341 343 350 354 342 334 336 328 316 323 333 330 318 317 323 324 321 320 311 302 291 278 273
235 206 230 257 273 303 272 252 285 321 351 356 355 357 356 328 324 321 316 320 328 332 336 345 337 317 318 327 326 332 332 335 322 310 311 314 311 309 306 297 280 271 261 258
191 190 203 237 241 239 260 291 331 339 329 323 326 329 338 327 305 312 310 320 328 327 331 333 325 315 315 317 317 328 330 324 311 306 308 305 305 302 298 298 302 290 285 292